Weather History for Salem, IL

Change the Weather History Date:

Wednesday, June 26, 2013

  Actual Average Record
Temperature  
Mean Temperature 79 °F -  
Max Temperature 87 °F 88 °F 97 °F (1978)
Min Temperature 72 °F 64 °F 50 °F (2004)
Cooling Degree Days 14    
Growing Degree Days 29 (Base 50)    
Moisture  
Dew Point 73 °F    
Average Humidity 82    
Maximum Humidity 95    
Minimum Humidity 66    
Precipitation  
Precipitation 0.26 in - - ()
Sea Level Pressure  
Sea Level Pressure 29.83 in    
Wind  
Wind Speed 8 mph (SSW)    
Max Wind Speed 17 mph    
Max Gust Speed 25 mph    
Visibility 9 miles    
Events Rain , Thunderstorm    
Averages and records for this station are not official NWS values.
T = Trace of Precipitation, MM = Missing Value Source: NWS Daily Summary

Daily Weather History Graph

Daily Weather History Graph

Search for Another Location

Airport:

Trip Planner

Search our weather history database for the weather conditions in past years. The results will help you decide how hot, cold, wet, or windy it might be!

Date:

Astronomy

Jun. 26, 2013 Rise Set
Actual Time 5:33 AM CDT 8:24 PM CDT
Civil Twilight 5:01 AM CDT 8:56 PM CDT
Nautical Twilight 4:21 AM CDT 9:36 PM CDT
Astronomical Twilight 3:35 AM CDT 10:22 PM CDT
Moon 10:50 PM CDT (6/26) 9:21 AM CDT (6/26)
Length of Visible Light 15h 55m
Length of Day
14h 51m
Waning Gibbous, 85% of the Moon is Illuminated
Jun 26
Waning Gibbous
Jun 29
Last Quarter
Jul 8
New
Jul 15
First Quarter
Jul 22
Full

Hourly Weather History & Observations

Time (CDT) Temp. Heat Index Dew Point Humidity Pressure Visibility Wind Dir Wind Speed Gust Speed Precip Events Conditions
12:15 AM 80.8 °F 85.2 °F 72.7 °F 76% 29.93 in 10.0 mi South 4.6 mph - N/A   Clear
12:35 AM 80.2 °F 84.5 °F 72.7 °F 78% 29.92 in 10.0 mi South 6.9 mph - N/A   Clear
12:55 AM 79.5 °F - 72.7 °F 79% 29.92 in 10.0 mi South 5.8 mph - N/A   Clear
1:15 AM 79.2 °F - 72.7 °F 80% 29.91 in 10.0 mi South 8.1 mph - N/A   Clear
1:35 AM 79.3 °F - 72.5 °F 79% 29.91 in 10.0 mi South 8.1 mph - N/A   Clear
1:55 AM 79.0 °F - 72.5 °F 80% 29.90 in 10.0 mi South 6.9 mph - N/A   Clear
2:15 AM 78.8 °F - 72.1 °F 80% 29.89 in 10.0 mi South 8.1 mph - N/A   Clear
2:35 AM 78.8 °F - 72.0 °F 79% 29.89 in 10.0 mi South 8.1 mph - N/A   Clear
2:55 AM 78.6 °F - 72.0 °F 80% 29.89 in 10.0 mi South 8.1 mph - N/A   Clear
3:15 AM 78.8 °F - 71.8 °F 79% 29.88 in 10.0 mi South 9.2 mph - N/A   Clear
3:35 AM 78.4 °F - 71.6 °F 79% 29.88 in 10.0 mi South 8.1 mph - N/A   Clear
3:55 AM 78.1 °F - 71.6 °F 80% 29.87 in 10.0 mi South 8.1 mph - N/A   Clear
4:15 AM 78.1 °F - 71.2 °F 79% 29.87 in 10.0 mi South 8.1 mph - N/A   Clear
4:35 AM 77.9 °F - 71.2 °F 80% 29.88 in 10.0 mi South 8.1 mph - N/A   Clear
4:55 AM 77.4 °F - 71.2 °F 81% 29.88 in 10.0 mi SSW 10.4 mph - N/A   Clear
5:15 AM 77.2 °F - 71.1 °F 81% 29.87 in 10.0 mi South 9.2 mph - N/A   Scattered Clouds
5:35 AM 77.4 °F - 70.9 °F 80% 29.88 in 10.0 mi South 8.1 mph - N/A   Scattered Clouds
5:55 AM 77.4 °F - 70.9 °F 80% 29.88 in 10.0 mi South 9.2 mph - N/A   Scattered Clouds
6:15 AM 77.4 °F - 70.9 °F 80% 29.88 in 10.0 mi South 9.2 mph - N/A   Scattered Clouds
6:35 AM 77.5 °F - 70.9 °F 80% 29.89 in 10.0 mi South 8.1 mph - N/A   Scattered Clouds
6:55 AM 77.0 °F - 70.9 °F 81% 29.90 in 10.0 mi South 8.1 mph - N/A   Clear
7:15 AM 77.0 °F - 70.9 °F 81% 29.90 in 10.0 mi South 4.6 mph - N/A Thunderstorm Thunderstorm
7:35 AM 75.7 °F - 71.8 °F 87% 29.91 in 10.0 mi Calm Calm - N/A Rain , Thunderstorm Light Thunderstorms and Rain
7:55 AM 72.5 °F - 67.5 °F 84% 29.92 in 2.5 mi SSW 8.1 mph 24.2 mph 0.18 in Rain , Thunderstorm Heavy Thunderstorms and Rain
8:15 AM 72.0 °F - 69.1 °F 91% 29.87 in 10.0 mi SSW 11.5 mph - N/A Rain , Thunderstorm Light Thunderstorms and Rain
8:35 AM 72.0 °F - 69.8 °F 93% 29.88 in 7.0 mi South 10.4 mph - 0.01 in Rain , Thunderstorm Rain
8:55 AM 73.4 °F - 72.0 °F 95% 29.88 in 7.0 mi SSW 10.4 mph - 0.01 in Rain , Thunderstorm Rain
9:15 AM 73.4 °F - 71.6 °F 94% 29.87 in 5.0 mi South 11.5 mph - 0.01 in Rain Heavy Rain
9:55 AM 73.9 °F - 72.5 °F 95% 29.84 in 7.0 mi South 10.4 mph 17.3 mph 0.01 in   Overcast
10:15 AM 74.5 °F - 72.9 °F 95% 29.84 in 7.0 mi South 12.7 mph - N/A   Overcast
10:35 AM 75.6 °F - 73.4 °F 93% 29.83 in 10.0 mi South 15.0 mph 19.6 mph N/A   Overcast
10:55 AM 76.6 °F - 73.9 °F 91% 29.83 in 10.0 mi South 12.7 mph 19.6 mph N/A   Overcast
11:15 AM 77.4 °F - 74.3 °F 90% 29.83 in 10.0 mi SSW 12.7 mph - N/A   Overcast
11:35 AM 79.7 °F - 75.0 °F 86% 29.83 in 10.0 mi SSW 13.8 mph 19.6 mph N/A   Mostly Cloudy
11:55 AM 80.2 °F 85.4 °F 75.0 °F 84% 29.83 in 10.0 mi SSW 13.8 mph - N/A   Overcast
12:15 PM 81.1 °F 87.2 °F 75.0 °F 82% 29.83 in 10.0 mi SSW 13.8 mph - N/A   Overcast
12:35 PM 83.7 °F 92.4 °F 76.1 °F 78% 29.83 in 10.0 mi SSW 15.0 mph 21.9 mph N/A   Scattered Clouds
12:55 PM 83.3 °F 91.1 °F 75.4 °F 77% 29.83 in 10.0 mi SSW 13.8 mph 20.7 mph N/A   Mostly Cloudy
1:15 PM 83.8 °F 91.8 °F 75.2 °F 75% 29.82 in 10.0 mi SW 12.7 mph 19.6 mph N/A   Overcast
1:35 PM 84.0 °F 92.6 °F 75.7 °F 76% 29.82 in 10.0 mi SSW 10.4 mph 16.1 mph N/A   Overcast
1:55 PM 85.1 °F 94.5 °F 76.1 °F 74% 29.81 in 10.0 mi SSW 15.0 mph 18.4 mph N/A   Mostly Cloudy
2:15 PM 84.4 °F 93.5 °F 76.1 °F 76% 29.80 in 10.0 mi SSW 12.7 mph 18.4 mph N/A   Mostly Cloudy
2:35 PM 85.8 °F 97.3 °F 77.4 °F 76% 29.79 in 10.0 mi SSW 10.4 mph 17.3 mph N/A   Mostly Cloudy
2:55 PM 86.5 °F 97.4 °F 76.5 °F 72% 29.78 in 10.0 mi SW 17.3 mph 21.9 mph N/A   Mostly Cloudy
3:15 PM 84.4 °F 94.2 °F 77.0 °F 78% 29.76 in 7.0 mi SSW 12.7 mph - N/A Rain Light Rain
3:35 PM 83.8 °F 92.8 °F 76.3 °F 78% 29.77 in 7.0 mi SW 12.7 mph 20.7 mph N/A Rain Rain
3:55 PM 74.5 °F - 70.0 °F 86% 29.77 in 3.0 mi SSW 17.3 mph 23.0 mph 0.06 in Rain , Thunderstorm Heavy Thunderstorms and Rain
4:15 PM 77.0 °F - 73.8 °F 90% 29.75 in 10.0 mi South 9.2 mph 19.6 mph N/A Thunderstorm Thunderstorm
4:35 PM 76.6 °F - 71.8 °F 85% 29.75 in 10.0 mi SSE 6.9 mph - N/A   Clear
4:55 PM 79.0 °F - 72.9 °F 81% 29.76 in 10.0 mi South 5.8 mph - N/A   Clear
5:15 PM 81.5 °F 86.9 °F 73.8 °F 77% 29.75 in 10.0 mi South 5.8 mph - N/A   Scattered Clouds
5:35 PM 81.7 °F 87.8 °F 74.7 °F 79% 29.75 in 10.0 mi South 6.9 mph - N/A   Clear
5:55 PM 82.4 °F 90.3 °F 76.3 °F 82% 29.74 in 10.0 mi South 6.9 mph - N/A   Mostly Cloudy
6:15 PM 84.2 °F 94.9 °F 77.7 °F 81% 29.72 in 10.0 mi SSW 4.6 mph - N/A Thunderstorm Thunderstorm
6:35 PM 83.8 °F 94.7 °F 78.3 °F 83% 29.71 in 10.0 mi Calm Calm - N/A Thunderstorm Mostly Cloudy
6:55 PM 85.8 °F 95.1 °F 75.4 °F 71% 29.73 in 10.0 mi West 17.3 mph 25.3 mph N/A Thunderstorm Scattered Clouds
7:15 PM 83.8 °F 88.9 °F 71.4 °F 66% 29.74 in 10.0 mi West 11.5 mph 18.4 mph N/A Thunderstorm Clear
7:35 PM 82.4 °F 87.2 °F 71.6 °F 70% 29.75 in 10.0 mi WNW 5.8 mph - N/A   Clear
7:55 PM 81.7 °F 86.3 °F 71.8 °F 72% 29.74 in 10.0 mi NW 6.9 mph - N/A   Clear
8:15 PM 81.0 °F 84.9 °F 71.2 °F 72% 29.75 in 10.0 mi West 6.9 mph - N/A   Clear
8:35 PM 79.7 °F - 71.6 °F 76% 29.76 in 10.0 mi West 5.8 mph - N/A   Clear
8:55 PM 78.8 °F - 72.5 °F 81% 29.77 in 10.0 mi WSW 3.5 mph - N/A   Scattered Clouds
9:15 PM 77.9 °F - 72.5 °F 83% 29.78 in 10.0 mi SW 5.8 mph - N/A   Scattered Clouds
9:35 PM 77.0 °F - 72.5 °F 86% 29.77 in 10.0 mi SW 4.6 mph - N/A   Clear
9:55 PM 77.2 °F - 72.5 °F 85% 29.78 in 10.0 mi WNW 3.5 mph - N/A   Clear
10:15 PM 77.0 °F - 72.5 °F 86% 29.79 in 10.0 mi Calm Calm - N/A   Clear
10:35 PM 75.7 °F - 73.4 °F 92% 29.80 in 10.0 mi Calm Calm - N/A   Clear
10:55 PM 75.6 °F - 73.4 °F 93% 29.81 in 10.0 mi Calm Calm - N/A   Clear
11:15 PM 75.4 °F - 73.6 °F 94% 29.82 in 10.0 mi Calm Calm - N/A   Scattered Clouds
11:35 PM 75.9 °F - 74.5 °F 95% 29.82 in 7.0 mi Calm Calm - N/A Rain Light Rain